Regional Weather Roundup
Issued by NWS Bismarck, ND

Home | Current Version | Previous Version | Text Only | Print | Product List | Glossary On
Versions: 1 2 3 4 5 6 7 8 9 10 11 12 13 14 15 16 17 18 19 20 21 22 23 24 25 26 27 28 29 30 31 32 33 34 35 36 37 38 39 40 41 42 43 44 45 46 47 48 49 50
000
ASUS43 KBIS 230610
RWRBIS

NWR BROADCAST TEXT
NATIONAL WEATHER SERVICE BISMARCK ND
1200 AM CST MON JAN 23 2017

NOTE: "FAIR" INDICATES FEW OR NO CLOUDS BELOW 12,000 FEET WITH NO
SIGNIFICANT WEATHER AND/OR OBSTRUCTIONS TO VISIBILITY.


CITY           SKY/WX    TMP DP  RH WIND       PRES   REMARKS
WILLISTON      CLOUDY    27  23  85 SW5       29.80S
MINOT          CLOUDY    30  25  81 W10       29.77S
MINOT AFB      CLOUDY    29  25  86 W10       29.76S WCI  19
BISMARCK       CLOUDY    31  24  75 W8        29.83S
DICKINSON      CLOUDY    25  20  81 W8        29.78R WCI  16
GARRISON         N/A     28  22  78 NW8       29.78S WCI  20
HETTINGER ARPT CLOUDY    24  22  91 NW6       29.81F WCI  17
JAMESTOWN      CLOUDY    32  27  81 NW12      29.78F
CARRINGTON     CLOUDY    32  27  80 W12       29.79F
HAZEN          CLOUDY   N/A N/A N/A NW10      29.82S
MANDAN         CLOUDY    28  25  86 NW9       29.82S WCI  20
RUGBY            N/A     28  27  93 W13       29.76S WCI  18
STANLEY        CLOUDY    25  25 100 W8G15     29.79S WCI  16
TIOGA          CLOUDY    25  25 100 W8        29.78F WCI  16
WATFORD CITY   CLOUDY    27  23  86 W5        29.80S
$$

CITY           SKY/WX    TMP DP  RH WIND       PRES   REMARKS
GRAND FORKS    CLOUDY    33  28  81 W6        29.77S
GRAND FORKS AF CLOUDY    32  28  84 NW7       29.77S
DEVILS LAKE    CLOUDY    30  27  88 W15       29.76S WCI  19
FARGO          CLOUDY    34  29  82 W6        29.79S
CAVALIER       MOCLDY    32  28  86 W5        29.75F
GRAFTON        CLOUDY    32  32 100 SW6       29.77F
GWINNER        CLOUDY    34  32  93 NW8       29.82S
ROLLA            N/A    N/A N/A N/A MISG        N/A
$$

CITY           SKY/WX    TMP DP  RH WIND       PRES   REMARKS
ABERDEEN       CLOUDY    31  25  78 NW9       29.86R
MOBRIDGE       CLOUDY    30  24  78 NW9       29.83R
BUFFALO          N/A     20  17  88 S7        29.73R WCI  11
RAPID CITY     FAIR      22  18  85 CALM      29.78F
GLASGOW        CLOUDY    29  24  82 SW6       29.78S
SIDNEY         CLOUDY    29  25  85 W5        29.81S
WOLF POINT     CLOUDY    30  25  81 SW5       29.80S
GLENDIVE       CLOUDY    27  22  81 S3        29.81S
MILES CITY     CLOUDY    25  21  85 E5        29.77S WCI  19
BAKER          CLOUDY    23  21  92 NE5       29.78F WCI  17
$$

CITY           SKY/WX    TMP DP  RH WIND       PRES   REMARKS
BILLINGS       CLOUDY    22  18  85 NE6       29.66F WCI  14
GREAT FALLS    SNOW      24  22  91 N5        29.70S VSB 1/4 WCI  18
REGINA         FLURRIES  19  16  86 W15       29.77S WCI   5
ESTEVAN        FLURRIES  25  21  86 W13       29.76F WCI  13
$$





USA.gov is the U.S. government's official web portal to all federal, state and local government web resources and services.